« Back
NWS Peachtree City, Ga » Text Product » MCN Terminal Aerodrome Forecast


Printer-friendly Version
Current Version              Previous Versions:   1  2  3  4  5  6  7  8  9  

Terminal Aerodrome Forecast

820
FTUS42 KFFC 211300 AAA
TAFMCN
TAF AMD
KMCN 211330Z 2114/2212 30005KT P6SM SKC
     FM211800 32008G14KT P6SM FEW030
     FM220000 32004KT P6SM SKC=

USA.gov is the U.S. government's official web portal to all federal, state and local government web resources and services.